"2016-05-01 00:00:00",1594011,11.95,52.07,6.044,1.364,6.903,99.67521,-1.527,-0.243,94.5,0,109.6,13.37,-0.78,14.1
"2016-05-01 00:00:30",1594012,9.74,42.12,9.39,1.652,6.49,99.66502,-1.553,-0.279,94.4,0,109.6,13.37,-0.81,4.1
"2016-05-01 00:01:00",1594013,8.6,38.69,7.266,1.333,6.531,99.6619,-1.561,-0.3,94.4,0,109.6,13.36,-0.81,0.7
"2016-05-01 00:01:30",1594014,7.884,37.84,9.38,1.445,6.835,99.66927,-1.543,-0.285,94.4,0,109.6,13.36,-0.80,359.8
"2016-05-01 00:02:00",1594015,10.67,44.93,7.103,1.743,6.103,99.68484,-1.503,-0.295,94.4,0,109.6,13.37,-0.76,6.9
"2016-05-01 00:02:30",1594016,12.3,53.48,6.269,1.349,6.43,99.6939,-1.48,-0.269,94.4,0,109.6,13.36,-0.73,15.5
"2016-05-01 00:03:00",1594017,10.98,51.69,6.628,1.407,6.401,99.69419,-1.479,-0.257,94.4,0,109.6,13.37,-0.73,13.7
"2016-05-01 00:03:30",1594018,10.07,44.49,6.82,1.483,6.499,99.69419,-1.479,-0.282,94.4,0,109.6,13.36,-0.73,6.5
"2016-05-01 00:04:00",1594019,9.2,42.19,6.853,1.541,6.687,99.69419,-1.479,-0.26,94.4,0,109.6,13.37,-0.73,4.2
"2016-05-01 00:04:30",1594020,9.37,41.8,6.245,1.639,6.621,99.69419,-1.479,-0.233,94.5,0,109.6,13.37,-0.73,3.8
"2016-05-01 00:05:00",1594021,9.51,43.25,5.9,1.778,6.659,99.69419,-1.479,-0.253,94.5,0,109.6,13.37,-0.73,5.2
"2016-05-01 00:05:30",1594022,9.59,41.31,6.297,1.531,6.346,99.69419,-1.479,-0.215,94.5,0,109.6,13.37,-0.73,3.3
"2016-05-01 00:06:00",1594023,9.42,40.02,6.971,1.372,6.174,99.69419,-1.479,-0.243,94.5,0,109.6,13.37,-0.73,2.0
"2016-05-01 00:06:30",1594024,9.49,41.52,7.173,1.573,6.347,99.69419,-1.479,-0.262,94.5,0,109.6,13.37,-0.73,3.5
"2016-05-01 00:07:00",1594025,9.68,42,6.648,1.164,6.638,99.69419,-1.479,-0.222,94.5,0,109.6,13.37,-0.73,4.0
"2016-05-01 00:07:30",1594026,9.92,40.32,6.638,1.281,6.502,99.69419,-1.479,-0.222,94.5,0,109.6,13.37,-0.73,2.3
"2016-05-01 00:08:00",1594027,9.87,42.46,6.245,1.535,6.489,99.69419,-1.479,-0.224,94.4,0,109.6,13.35,-0.73,4.5
"2016-05-01 00:08:30",1594028,10.92,43.7,7.002,2.077,6.602,99.69419,-1.479,-0.222,94.4,0,109.6,13.36,-0.73,5.7
"2016-05-01 00:09:00",1594029,9.84,45.35,7.706,1.651,6.285,99.69419,-1.479,-0.246,94.4,0,109.6,13.36,-0.73,7.3
"2016-05-01 00:09:30",1594030,8.32,41.17,6.353,1.461,6.602,99.69419,-1.479,-0.235,94.5,0,109.6,13.36,-0.73,3.2
"2016-05-01 00:10:00",1594031,9.16,45.68,7.84,1.676,6.5,99.69475,-1.478,-0.22,94.4,0,109.7,13.36,-0.73,7.7
"2016-05-01 00:10:30",1594032,8.68,42.86,8.09,1.4,6.34,99.69447,-1.478,-0.225,94.4,0,109.6,13.36,-0.73,4.9
"2016-05-01 00:11:00",1594033,8.39,41.93,6.608,1.2,6.225,99.69419,-1.479,-0.226,94.4,0,109.6,13.36,-0.73,3.9
"2016-05-01 00:11:30",1594034,10.47,38.38,6.64,1.4,6.323,99.6956,-1.476,-0.229,94.4,0,109.6,13.36,-0.73,0.4
"2016-05-01 00:12:00",1594035,11.51,44.05,6.458,1.366,6.625,99.69702,-1.472,-0.243,94.4,0,109.6,13.36,-0.73,6.0
"2016-05-01 00:12:30",1594036,9.99,44.85,5.766,1.516,6.556,99.6973,-1.471,-0.213,94.4,0,109.6,13.36,-0.72,6.8
"2016-05-01 00:13:00",1594037,9.18,42.49,7.178,2.196,6.433,99.69419,-1.479,-0.219,94.4,0,109.6,13.36,-0.73,4.5
"2016-05-01 00:13:30",1594038,10.01,42.59,7.017,1.631,6.84,99.69419,-1.479,-0.231,94.4,0,109.6,13.36,-0.73,4.6
"2016-05-01 00:14:00",1594039,10.1,44.12,7.605,1.582,6.391,99.69447,-1.478,-0.215,94.4,0,109.6,13.36,-0.73,6.1
"2016-05-01 00:14:30",1594040,9.3,45.62,7.217,1.857,6.508,99.69872,-1.468,-0.222,94.4,0,109.6,13.36,-0.72,7.6
"2016-05-01 00:15:00",1594041,8.69,35.11,6.73,1.374,6.325,99.70692,-1.447,-0.202,94.4,0,109.6,13.36,-0.70,357.1
"2016-05-01 00:15:30",1594042,8.66,35.29,7.044,1.285,6.265,99.71061,-1.437,-0.226,94.4,0,109.6,13.36,-0.69,357.3
"2016-05-01 00:16:00",1594043,8.15,36.58,7.147,1.165,6.158,99.71203,-1.434,-0.215,94.4,0,109.7,13.37,-0.69,358.6
"2016-05-01 00:16:30",1594044,8.6,39.91,7.013,1.576,6.421,99.72533,-1.4,-0.183,94.5,0,109.6,13.37,-0.65,1.9
"2016-05-01 00:17:00",1594045,8.78,39.89,6.182,1.309,6.356,99.72845,-1.392,-0.177,94.5,0,109.6,13.37,-0.64,1.9
"2016-05-01 00:17:30",1594046,8.75,39.81,7.519,1.48,6.166,99.72845,-1.392,-0.159,94.4,0,109.6,13.37,-0.64,1.8
"2016-05-01 00:18:00",1594047,9.04,38.69,7.618,1.528,6.313,99.72816,-1.393,-0.157,94.4,0,109.6,13.37,-0.65,0.7
"2016-05-01 00:18:30",1594048,8.27,41.05,7.198,1.332,6.224,99.72874,-1.391,-0.155,94.4,0,109.6,13.37,-0.64,3.0
"2016-05-01 00:19:00",1594049,8.45,41.95,8.06,1.352,6.423,99.73157,-1.384,-0.157,94.5,0,109.6,13.37,-0.64,4.0
"2016-05-01 00:19:30",1594050,8.2,35.55,6.81,1.568,6.415,99.73722,-1.369,-0.112,94.5,0,109.6,13.37,-0.62,357.5
"2016-05-01 00:20:00",1594051,9.41,36.71,6.176,1.312,6.239,99.74402,-1.352,-0.118,94.5,0,109.6,13.37,-0.60,358.7
"2016-05-01 00:20:30",1594052,8.54,38.22,6.706,1.343,6.106,99.74544,-1.348,-0.14,94.5,0,109.6,13.37,-0.60,0.2
"2016-05-01 00:21:00",1594053,8.57,35.82,7.02,1.367,6.109,99.74685,-1.345,-0.127,94.5,0,109.6,13.36,-0.60,357.8
"2016-05-01 00:21:30",1594054,8.2,37.59,6.091,1.365,6.115,99.75082,-1.335,-0.097,94.5,0,109.6,13.37,-0.59,359.6
"2016-05-01 00:22:00",1594055,8.74,39.36,6.521,1.531,6.462,99.75705,-1.319,-0.076,94.5,0,109.6,13.36,-0.57,1.4
"2016-05-01 00:22:30",1594056,9.29,39.57,7.087,1.226,6.638,99.76073,-1.31,-0.089,94.5,0,109.6,13.37,-0.56,1.6
"2016-05-01 00:23:00",1594057,8.84,37.45,6.569,1.225,6.333,99.7613,-1.308,-0.097,94.5,0,109.6,13.36,-0.56,359.5
"2016-05-01 00:23:30",1594058,9.36,35.37,6.622,1.262,6.495,99.7613,-1.308,-0.098,94.5,0,109.6,13.37,-0.56,357.4
"2016-05-01 00:24:00",1594059,9.36,36.5,6.472,1.228,6.552,99.75818,-1.316,-0.082,94.5,0,109.6,13.37,-0.57,358.5
"2016-05-01 00:24:30",1594060,9.4,36.37,6.148,1.476,6.272,99.75846,-1.315,-0.078,94.4,0,109.6,13.37,-0.57,358.4
"2016-05-01 00:25:00",1594061,9.26,38.66,6.55,1.397,6.382,99.75705,-1.319,-0.082,94.4,0,109.6,13.36,-0.57,0.7
"2016-05-01 00:25:30",1594062,8.74,38.38,6.111,1.284,6.734,99.75648,-1.32,-0.08,94.4,0,109.6,13.36,-0.57,0.4
"2016-05-01 00:26:00",1594063,9.34,40.7,6.929,1.549,6.477,99.7511,-1.334,-0.076,94.4,0,109.6,13.36,-0.59,2.7
"2016-05-01 00:26:30",1594064,9.16,37.49,6.35,1.374,6.629,99.74572,-1.348,-0.078,94.4,0,109.6,13.36,-0.60,359.5
"2016-05-01 00:27:00",1594065,8.61,38.5,5.582,1.483,6.601,99.74317,-1.354,-0.072,94.4,0,109.6,13.36,-0.61,0.5
"2016-05-01 00:27:30",1594066,9.65,40.32,6.39,1.52,6.469,99.73836,-1.367,-0.096,94.4,0,109.6,13.36,-0.62,2.3
"2016-05-01 00:28:00",1594067,9.85,40.45,6.597,1.431,6.473,99.72929,-1.39,-0.117,94.4,0,109.7,13.36,-0.64,2.5
"2016-05-01 00:28:30",1594068,9.27,38.92,7.163,1.548,6.671,99.72816,-1.393,-0.086,94.4,0,109.6,13.36,-0.65,0.9
"2016-05-01 00:29:00",1594069,9.72,38.07,6.632,1.382,6.704,99.72816,-1.393,-0.136,94.4,0,109.6,13.36,-0.65,0.1
"2016-05-01 00:29:30",1594070,10.84,40.67,6.075,1.783,6.678,99.72845,-1.392,-0.109,94.4,0,109.6,13.36,-0.64,2.7
"2016-05-01 00:30:00",1594071,9.89,39.78,6.509,1.484,6.34,99.72816,-1.393,-0.147,94.3,0,109.6,13.36,-0.65,1.8
"2016-05-01 00:30:30",1594072,9.21,39.12,7.362,1.514,6.526,99.72816,-1.393,-0.14,94.3,0,109.6,13.36,-0.65,1.1
"2016-05-01 00:31:00",1594073,9.14,40.97,6.912,1.576,6.732,99.72759,-1.394,-0.137,94.3,0,109.6,13.36,-0.65,3.0
"2016-05-01 00:31:30",1594074,9.12,39.97,6.823,1.416,6.613,99.72533,-1.4,-0.15,94.3,0,109.6,13.36,-0.65,2.0
"2016-05-01 00:32:00",1594075,8.68,42.91,6.07,1.393,6.55,99.72591,-1.398,-0.142,94.3,0,109.6,13.37,-0.65,4.9
"2016-05-01 00:32:30",1594076,8.41,38.51,6.726,1.237,6.264,99.72761,-1.394,-0.147,94.3,0,109.6,13.37,-0.65,0.5
"2016-05-01 00:33:00",1594077,8.53,39.77,6.775,1.395,6.108,99.72874,-1.391,-0.185,94.3,0,109.6,13.37,-0.64,1.8
"2016-05-01 00:33:30",1594078,10.19,38.62,7.722,1.538,6.626,99.72845,-1.392,-0.157,94.4,0,109.6,13.36,-0.64,0.6
"2016-05-01 00:34:00",1594079,9.49,44.78,6.355,1.594,6.468,99.72816,-1.393,-0.133,94.3,0,109.7,13.37,-0.65,6.8
"2016-05-01 00:34:30",1594080,9.38,43.71,6.173,1.262,6.514,99.72816,-1.393,-0.163,94.3,0,109.6,13.37,-0.65,5.7
"2016-05-01 00:35:00",1594081,9.36,42.96,7.564,1.339,6.3,99.72816,-1.393,-0.147,94.3,0,109.6,13.37,-0.65,5.0
"2016-05-01 00:35:30",1594082,9.01,42.32,7.001,1.538,6.369,99.72675,-1.396,-0.173,94.3,0,109.6,13.37,-0.65,4.3
"2016-05-01 00:36:00",1594083,9.78,42.64,6.294,1.611,6.587,99.71684,-1.421,-0.181,94.3,0,109.6,13.37,-0.67,4.6
"2016-05-01 00:36:30",1594084,8.66,43.19,6.379,1.254,6.615,99.71259,-1.432,-0.151,94.3,0,109.6,13.37,-0.69,5.2
"2016-05-01 00:37:00",1594085,9.36,44.89,6.121,1.326,6.321,99.71033,-1.438,-0.169,94.3,0,109.6,13.37,-0.69,6.9
"2016-05-01 00:37:30",1594086,8.07,42.88,6.774,1.332,6.804,99.699,-1.467,-0.197,94.3,0,109.6,13.37,-0.72,4.9
"2016-05-01 00:38:00",1594087,7.975,45.13,6.227,1.48,6.216,99.69447,-1.478,-0.188,94.3,0,109.6,13.37,-0.73,7.1
"2016-05-01 00:38:30",1594088,9.38,42.13,6.816,1.788,6.404,99.69447,-1.478,-0.199,94.3,0,109.6,13.37,-0.73,4.1
"2016-05-01 00:39:00",1594089,10.56,43.13,7.982,2.207,6.213,99.69617,-1.474,-0.192,94.3,0,109.6,13.37,-0.73,5.1
"2016-05-01 00:39:30",1594090,9.91,42.65,7.395,1.862,6.404,99.7007,-1.463,-0.2,94.2,0,109.6,13.37,-0.72,4.7
"2016-05-01 00:40:00",1594091,9.49,43.58,6.889,1.995,6.314,99.70325,-1.456,-0.215,94.2,0,109.6,13.37,-0.71,5.6
"2016-05-01 00:40:30",1594092,8.55,44.35,7.76,1.33,6.584,99.70863,-1.442,-0.167,94.3,0,109.6,13.36,-0.70,6.3
"2016-05-01 00:41:00",1594093,11.25,48.58,6.294,1.316,6.851,99.71117,-1.436,-0.202,94.3,0,109.6,13.37,-0.69,10.6
"2016-05-01 00:41:30",1594094,9.45,44.04,7.323,1.324,6.536,99.70975,-1.439,-0.185,94.2,0,109.6,13.37,-0.69,6.0
"2016-05-01 00:42:00",1594095,9.17,40.22,6.35,1.483,6.438,99.70778,-1.444,-0.199,94.2,0,109.6,13.36,-0.70,2.2
"2016-05-01 00:42:30",1594096,9.5,45.94,6.794,1.416,6.372,99.71089,-1.437,-0.213,94.3,0,109.6,13.36,-0.69,7.9
"2016-05-01 00:43:00",1594097,9.53,44.4,7.762,2.205,6.803,99.71146,-1.435,-0.203,94.3,0,109.6,13.36,-0.69,6.4
"2016-05-01 00:43:30",1594098,8.65,39.17,6.81,1.378,6.614,99.71117,-1.436,-0.176,94.3,0,109.6,13.36,-0.69,1.2
"2016-05-01 00:44:00",1594099,8.27,40.96,7.247,1.469,6.366,99.71117,-1.436,-0.176,94.3,0,109.6,13.35,-0.69,3.0
"2016-05-01 00:44:30",1594100,8.36,41.63,6.935,1.345,6.278,99.71458,-1.427,-0.194,94.2,0,109.6,13.35,-0.68,3.6
"2016-05-01 00:45:00",1594101,10.02,44.26,6.77,1.597,6.37,99.72421,-1.403,-0.174,94.2,0,109.6,13.36,-0.66,6.3
"2016-05-01 00:45:30",1594102,10.4,44.9,6.704,1.895,6.758,99.72193,-1.408,-0.185,94.3,0,109.6,13.35,-0.66,6.9
"2016-05-01 00:46:00",1594103,9.56,45.28,6.253,1.724,6.801,99.7123,-1.433,-0.154,94.2,0,109.6,13.35,-0.69,7.3
"2016-05-01 00:46:30",1594104,8.41,41.79,6.625,1.27,6.642,99.71117,-1.436,-0.16,94.2,0,109.6,13.36,-0.69,3.8
"2016-05-01 00:47:00",1594105,8.6,40.06,7.101,1.37,6.17,99.71146,-1.435,-0.176,94.2,0,109.6,13.36,-0.69,2.1
"2016-05-01 00:47:30",1594106,9.33,44.38,7.08,1.228,6.377,99.7208,-1.411,-0.201,94.2,0,109.6,13.36,-0.66,6.4
"2016-05-01 00:48:00",1594107,7.978,40.14,7.828,1.441,6.738,99.72874,-1.391,-0.179,94.2,0,109.6,13.36,-0.64,2.1
"2016-05-01 00:48:30",1594108,7.835,44.63,6.86,1.685,6.117,99.72874,-1.391,-0.166,94.2,0,109.6,13.36,-0.64,6.6
"2016-05-01 00:49:00",1594109,8.43,41.23,7.872,1.489,6.233,99.72845,-1.392,-0.166,94.2,0,109.6,13.37,-0.64,3.2
"2016-05-01 00:49:30",1594110,9.18,41.8,6.451,1.386,6.689,99.72901,-1.39,-0.165,94.2,0,109.6,13.37,-0.64,3.8
"2016-05-01 00:50:00",1594111,8.86,44.28,6.631,1.339,6.076,99.72874,-1.391,-0.136,94.2,0,109.6,13.37,-0.64,6.3
"2016-05-01 00:50:30",1594112,8.22,41.04,6.644,1.213,6.533,99.73014,-1.387,-0.15,94.2,0,109.6,13.37,-0.64,3.0
"2016-05-01 00:51:00",1594113,7.753,42.68,7.4,1.38,6.522,99.73496,-1.375,-0.138,94.2,0,109.6,13.37,-0.63,4.7
"2016-05-01 00:51:30",1594114,7.563,42.42,7.335,1.576,6.197,99.7392,-1.364,-0.138,94.2,0,109.6,13.37,-0.62,4.4
"2016-05-01 00:52:00",1594115,8.97,43.21,6.444,1.214,6.244,99.73977,-1.363,-0.148,94.2,0,109.6,13.37,-0.62,5.2
"2016-05-01 00:52:30",1594116,8.63,41.33,6.576,1.301,6.6,99.73043,-1.387,-0.122,94.3,0,109.6,13.37,-0.64,3.3
"2016-05-01 00:53:00",1594117,9.64,42.1,6.273,1.206,6.741,99.72986,-1.388,-0.158,94.2,0,109.6,13.37,-0.64,4.1
"2016-05-01 00:53:30",1594118,8.8,40.66,6.108,1.316,6.503,99.72929,-1.39,-0.138,94.2,0,109.6,13.37,-0.64,2.7
"2016-05-01 00:54:00",1594119,8.9,38.63,6.587,1.25,6.221,99.72562,-1.399,-0.149,94.2,0,109.6,13.37,-0.65,0.6
"2016-05-01 00:54:30",1594120,9.63,38.97,6.46,1.294,6.47,99.72476,-1.401,-0.164,94.2,0,109.6,13.37,-0.65,1.0
"2016-05-01 00:55:00",1594121,9.53,38.42,6.424,1.325,6.725,99.72165,-1.409,-0.179,94.2,0,109.6,13.37,-0.66,0.4
"2016-05-01 00:55:30",1594122,9.25,37.48,6.273,1.399,6.742,99.72561,-1.399,-0.159,94.2,0,109.6,13.37,-0.65,359.5
"2016-05-01 00:56:00",1594123,9.36,37.69,6.059,1.458,6.791,99.72901,-1.39,-0.145,94.2,0,109.6,13.37,-0.64,359.7
"2016-05-01 00:56:30",1594124,9.08,39.54,6.957,1.452,6.482,99.72901,-1.39,-0.148,94.1,0,109.6,13.37,-0.64,1.5
"2016-05-01 00:57:00",1594125,8.7,39.41,7.26,1.378,6.153,99.73071,-1.386,-0.184,94.1,0,109.6,13.37,-0.64,1.4
"2016-05-01 00:57:30",1594126,8.95,36.76,6.94,1.495,6.684,99.73128,-1.385,-0.159,94.1,0,109.6,13.36,-0.64,358.8
"2016-05-01 00:58:00",1594127,11.15,42.12,6.152,1.638,6.811,99.73014,-1.387,-0.15,94.2,0,109.6,13.36,-0.64,4.1
"2016-05-01 00:58:30",1594128,8.53,40.8,7.551,1.229,6.691,99.73128,-1.385,-0.163,94.2,0,109.6,13.37,-0.64,2.8
"2016-05-01 00:59:00",1594129,8.75,40.32,6.756,1.298,6.453,99.73212,-1.382,-0.141,94.1,0,109.6,13.36,-0.64,2.3
"2016-05-01 00:59:30",1594130,9.63,36.29,7.78,1.38,6.654,99.73183,-1.383,-0.13,94.1,0,109.6,13.36,-0.64,358.3
"2016-05-01 01:00:00",1594131,9.96,39.05,6.619,1.788,7.022,99.73099,-1.385,-0.147,94.1,0,109.6,13.36,-0.64,1.0
"2016-05-01 01:00:30",1594132,7.999,41.15,6.625,1.476,6.846,99.73043,-1.387,-0.128,94.1,0,109.6,13.36,-0.64,3.2
"2016-05-01 01:01:00",1594133,8.53,39.97,7.145,1.476,6.074,99.73128,-1.385,-0.117,94.1,0,109.6,13.36,-0.64,2.0
"2016-05-01 01:01:30",1594134,8.64,37.13,6.822,1.349,6.826,99.73099,-1.385,-0.148,94.1,0,109.6,13.36,-0.64,359.1
"2016-05-01 01:02:00",1594135,8.44,37.93,6.151,1.444,6.485,99.73466,-1.376,-0.117,94.1,0,109.6,13.36,-0.63,359.9
"2016-05-01 01:02:30",1594136,8.31,37.79,7.294,1.548,6.504,99.73325,-1.38,-0.146,94.1,0,109.6,13.36,-0.63,359.8
"2016-05-01 01:03:00",1594137,8.72,38.95,6.737,1.334,6.404,99.73665,-1.371,-0.104,94.1,0,109.6,13.36,-0.62,1.0
"2016-05-01 01:03:30",1594138,8.34,41.61,6.633,1.393,6.328,99.74118,-1.359,-0.121,94.1,0,109.6,13.36,-0.61,3.6
"2016-05-01 01:04:00",1594139,8.89,39.19,6.654,1.308,6.306,99.74655,-1.346,-0.154,94.1,0,109.6,13.36,-0.60,1.2
"2016-05-01 01:04:30",1594140,9,41.37,5.836,1.355,6.721,99.74061,-1.361,-0.096,94.1,0,109.6,13.36,-0.61,3.4
"2016-05-01 01:05:00",1594141,9.01,41.04,6.389,1.261,6.705,99.73183,-1.383,-0.137,94.1,0,109.6,13.36,-0.64,3.0
"2016-05-01 01:05:30",1594142,9,40.11,6.343,1.284,6.601,99.73099,-1.385,-0.131,94.1,0,109.6,13.37,-0.64,2.1
"2016-05-01 01:06:00",1594143,9.29,40.09,6.354,1.305,6.412,99.72504,-1.4,-0.118,94,0,109.6,13.36,-0.65,2.1
"2016-05-01 01:06:30",1594144,9.19,40.2,6.244,1.177,6.399,99.71824,-1.418,-0.175,94,0,109.6,13.37,-0.67,2.2
"2016-05-01 01:07:00",1594145,9.03,39.78,6.534,1.335,6.806,99.71654,-1.422,-0.175,94,0,109.6,13.37,-0.68,1.8
"2016-05-01 01:07:30",1594146,9.42,39.11,6.14,1.392,6.805,99.71824,-1.418,-0.148,94,0,109.6,13.37,-0.67,1.1
"2016-05-01 01:08:00",1594147,9.6,40.01,6.291,1.174,6.599,99.71682,-1.421,-0.148,94,0,109.6,13.37,-0.67,2.0
"2016-05-01 01:08:30",1594148,9.86,38.39,6.062,1.245,6.495,99.71738,-1.42,-0.179,94,0,109.6,13.37,-0.67,0.4
"2016-05-01 01:09:00",1594149,9.48,38.27,6.626,1.239,6.621,99.71909,-1.416,-0.182,94,0,109.6,13.37,-0.67,0.3
"2016-05-01 01:09:30",1594150,10.01,38.73,6.666,1.35,6.923,99.71909,-1.416,-0.203,94,0,109.6,13.37,-0.67,0.7
"2016-05-01 01:10:00",1594151,11.34,39.73,6.861,1.497,6.951,99.72021,-1.413,-0.158,94,0,109.6,13.37,-0.67,1.7
"2016-05-01 01:10:30",1594152,9.94,36.77,6.81,1.393,6.853,99.72332,-1.405,-0.164,93.9,0,109.6,13.37,-0.66,358.8
"2016-05-01 01:11:00",1594153,9.58,37.7,6.797,1.638,6.544,99.72786,-1.393,-0.172,94,0,109.6,13.37,-0.65,359.7
"2016-05-01 01:11:30",1594154,9.04,40.08,6.179,1.212,6.522,99.73918,-1.364,-0.158,93.9,0,109.6,13.37,-0.62,2.1
"2016-05-01 01:12:00",1594155,8.98,36.63,6.766,1.446,7.05,99.73692,-1.37,-0.161,94,0,109.6,13.37,-0.62,358.6
"2016-05-01 01:12:30",1594156,8.96,37.09,6.262,1.277,6.576,99.73975,-1.363,-0.14,94,0,109.6,13.37,-0.62,359.1
"2016-05-01 01:13:00",1594157,8.79,39.35,5.921,1.273,6.623,99.74003,-1.362,-0.125,94,0,109.6,13.37,-0.62,1.3
"2016-05-01 01:13:30",1594158,8.73,38.47,6.561,1.215,6.858,99.74003,-1.362,-0.161,94,0,109.6,13.37,-0.62,0.5
"2016-05-01 01:14:00",1594159,8.87,38.11,6.826,1.35,6.415,99.73608,-1.372,-0.136,94,0,109.6,13.37,-0.63,0.1
"2016-05-01 01:14:30",1594160,8.85,37.98,6.517,1.308,6.856,99.73664,-1.371,-0.158,94,0,109.6,13.37,-0.62,360.0
"2016-05-01 01:15:00",1594161,8.93,38.3,6.701,1.223,6.664,99.73608,-1.372,-0.11,93.9,0,109.6,13.36,-0.63,0.3
"2016-05-01 01:15:30",1594162,8.71,40.45,6.346,1.315,6.328,99.73777,-1.368,-0.133,93.9,0,109.6,13.37,-0.62,2.5
"2016-05-01 01:16:00",1594163,8.54,39.12,6.449,1.229,6.255,99.73805,-1.367,-0.145,93.9,0,109.6,13.36,-0.62,1.1
"2016-05-01 01:16:30",1594164,9.35,36.82,6.344,1.479,6.644,99.73664,-1.371,-0.111,93.9,0,109.6,13.36,-0.62,358.8
"2016-05-01 01:17:00",1594165,9.61,35.65,6.685,1.147,6.676,99.73721,-1.369,-0.137,93.9,0,109.6,13.36,-0.62,357.6
"2016-05-01 01:17:30",1594166,8.99,39.37,6.606,1.337,6.663,99.74117,-1.359,-0.101,93.9,0,109.6,13.36,-0.61,1.4
"2016-05-01 01:18:00",1594167,9.1,38.74,5.993,1.321,6.334,99.74088,-1.36,-0.115,93.9,0,109.6,13.36,-0.61,0.7
"2016-05-01 01:18:30",1594168,9.72,37.25,6.957,1.288,6.596,99.74285,-1.355,-0.102,93.9,0,109.6,13.36,-0.61,359.2
"2016-05-01 01:19:00",1594169,9.96,34.46,6.337,1.271,6.862,99.74172,-1.358,-0.132,93.9,0,109.6,13.36,-0.61,356.5
"2016-05-01 01:19:30",1594170,9.77,36.08,6.473,1.323,6.8,99.73946,-1.364,-0.121,93.9,0,109.6,13.36,-0.62,358.1
"2016-05-01 01:20:00",1594171,9.93,37.13,6.584,1.441,6.879,99.73918,-1.364,-0.098,93.9,0,109.6,13.36,-0.62,359.1
"2016-05-01 01:20:30",1594172,9.53,37.62,6.61,1.312,6.464,99.74201,-1.357,-0.086,93.9,0,109.6,13.36,-0.61,359.6
"2016-05-01 01:21:00",1594173,9.08,38.36,6.294,1.348,6.512,99.73918,-1.364,-0.14,93.9,0,109.6,13.36,-0.62,0.4
"2016-05-01 01:21:30",1594174,8.94,37.75,6.83,1.563,6.977,99.74285,-1.355,-0.111,93.9,0,109.6,13.37,-0.61,359.8
"2016-05-01 01:22:00",1594175,9.05,37.56,6.682,1.212,6.638,99.74059,-1.361,-0.091,93.9,0,109.6,13.37,-0.61,359.6
"2016-05-01 01:22:30",1594176,8.82,37.63,6.369,1.335,6.601,99.74285,-1.355,-0.11,93.9,0,109.6,13.37,-0.61,359.6
"2016-05-01 01:23:00",1594177,8.63,38.94,6.965,1.353,6.549,99.74285,-1.355,-0.091,93.9,0,109.6,13.37,-0.61,0.9
"2016-05-01 01:23:30",1594178,8.72,38.44,6.401,1.254,6.411,99.74229,-1.357,-0.105,93.9,0,109.6,13.37,-0.61,0.4
"2016-05-01 01:24:00",1594179,9.19,37.64,6.79,1.293,6.882,99.74257,-1.356,-0.135,93.8,0,109.6,13.37,-0.61,359.6
"2016-05-01 01:24:30",1594180,9.29,38.41,6.129,1.566,6.835,99.74229,-1.357,-0.098,93.9,0,109.6,13.37,-0.61,0.4
"2016-05-01 01:25:00",1594181,9.05,38.4,7.363,1.229,6.261,99.7437,-1.353,-0.098,93.9,0,109.6,13.37,-0.61,0.4
"2016-05-01 01:25:30",1594182,9.31,38.14,6.905,1.392,6.698,99.74059,-1.361,-0.114,93.8,0,109.6,13.37,-0.61,0.1
"2016-05-01 01:26:00",1594183,8.9,38.37,6.722,1.256,6.659,99.74144,-1.359,-0.112,93.8,0,109.6,13.37,-0.61,0.4
"2016-05-01 01:26:30",1594184,8.85,38.27,7.285,1.389,6.693,99.74257,-1.356,-0.132,93.8,0,109.6,13.37,-0.61,0.3
"2016-05-01 01:27:00",1594185,8.8,39.27,6.323,1.255,6.83,99.74229,-1.357,-0.122,93.8,0,109.6,13.37,-0.61,1.3
"2016-05-01 01:27:30",1594186,8.93,39.02,6.377,1.325,6.544,99.73917,-1.364,-0.106,93.8,0,109.6,13.37,-0.62,1.0
"2016-05-01 01:28:00",1594187,8.53,38.24,6.475,1.333,6.191,99.73294,-1.38,-0.143,93.8,0,109.6,13.37,-0.63,0.2
"2016-05-01 01:28:30",1594188,8.84,36.38,6.47,1.206,6.716,99.73548,-1.374,-0.126,93.8,0,109.6,13.37,-0.63,358.4
"2016-05-01 01:29:00",1594189,8.89,37.19,6.616,1.215,6.648,99.74059,-1.361,-0.154,93.8,0,109.6,13.37,-0.61,359.2
"2016-05-01 01:29:30",1594190,8.51,37.07,6.966,1.269,6.473,99.74284,-1.355,-0.14,93.8,0,109.6,13.37,-0.61,359.1
"2016-05-01 01:30:00",1594191,8.41,37.38,6.078,1.408,6.217,99.74511,-1.349,-0.12,93.8,0,109.6,13.37,-0.60,359.4
"2016-05-01 01:30:30",1594192,9.15,36.13,6.319,1.162,6.291,99.74483,-1.35,-0.145,93.8,0,109.6,13.37,-0.60,358.1
"2016-05-01 01:31:00",1594193,8.89,37.01,6.538,1.104,6.649,99.74539,-1.349,-0.136,93.8,0,109.6,13.37,-0.60,359.0
"2016-05-01 01:31:30",1594194,9.25,36.82,6.448,1.28,6.611,99.74568,-1.348,-0.126,93.8,0,109.6,13.37,-0.60,358.8
"2016-05-01 01:32:00",1594195,8.82,35.6,6.521,1.222,6.633,99.74624,-1.346,-0.102,93.8,0,109.6,13.36,-0.60,357.6
"2016-05-01 01:32:30",1594196,8.48,39.09,5.724,1.374,6.414,99.74568,-1.348,-0.125,93.8,0,109.6,13.37,-0.60,1.1
"2016-05-01 01:33:00",1594197,8.59,39.27,6.015,1.298,6.308,99.74596,-1.347,-0.138,93.8,0,109.6,13.36,-0.60,1.3
"2016-05-01 01:33:30",1594198,9.58,35.02,7.064,1.35,6.513,99.74568,-1.348,-0.134,93.8,0,109.6,13.36,-0.60,357.0
"2016-05-01 01:34:00",1594199,9.92,35.06,6.35,1.17,6.788,99.74512,-1.349,-0.101,93.8,0,109.6,13.36,-0.60,357.1
"2016-05-01 01:34:30",1594200,8.94,36.21,6.424,1.279,6.513,99.74596,-1.347,-0.099,93.8,0,109.6,13.36,-0.60,358.2
"2016-05-01 01:35:00",1594201,9.62,35.37,6.293,1.283,6.519,99.74624,-1.346,-0.119,93.8,0,109.6,13.36,-0.60,357.4
"2016-05-01 01:35:30",1594202,10,36.18,5.968,1.257,6.404,99.74512,-1.349,-0.111,93.8,0,109.6,13.36,-0.60,358.2
"2016-05-01 01:36:00",1594203,9.56,35.65,6.621,1.214,6.872,99.74596,-1.347,-0.136,93.8,0,109.6,13.36,-0.60,357.6
"2016-05-01 01:36:30",1594204,9.83,35.2,6.652,1.4,6.636,99.74681,-1.345,-0.109,93.8,0,109.6,13.36,-0.60,357.2
"2016-05-01 01:37:00",1594205,9.84,35.35,5.824,1.331,6.618,99.74539,-1.349,-0.083,93.8,0,109.6,13.36,-0.60,357.4
"2016-05-01 01:37:30",1594206,10.35,35.38,6.663,1.263,6.836,99.74539,-1.349,-0.101,93.8,0,109.6,13.36,-0.60,357.4
"2016-05-01 01:38:00",1594207,9.86,36.72,6.389,1.364,6.725,99.74596,-1.347,-0.094,93.8,0,109.6,13.37,-0.60,358.7
"2016-05-01 01:38:30",1594208,10.11,35.61,6.628,1.216,6.914,99.74653,-1.346,-0.126,93.8,0,109.6,13.37,-0.60,357.6
"2016-05-01 01:39:00",1594209,9.99,36.42,6.617,1.304,6.941,99.74596,-1.347,-0.09,93.8,0,109.6,13.37,-0.60,358.4
"2016-05-01 01:39:30",1594210,9.69,36.42,5.81,1.236,6.676,99.74624,-1.346,-0.093,93.8,0,109.6,13.37,-0.60,358.4
"2016-05-01 01:40:00",1594211,10.03,37.52,6.107,1.376,6.673,99.74624,-1.346,-0.116,93.8,0,109.6,13.37,-0.60,359.5
"2016-05-01 01:40:30",1594212,9.82,36.74,6.706,1.387,7.02,99.74653,-1.346,-0.102,93.8,0,109.6,13.37,-0.60,358.7
"2016-05-01 01:41:00",1594213,9.72,39.99,6.497,1.402,7.186,99.74737,-1.344,-0.113,93.8,0,109.6,13.37,-0.60,2.0
"2016-05-01 01:41:30",1594214,10.33,40.08,7.203,1.665,7.103,99.74539,-1.349,-0.101,93.8,0,109.6,13.37,-0.60,2.1
"2016-05-01 01:42:00",1594215,9.52,38.76,7.478,1.574,6.591,99.7352,-1.375,-0.107,93.8,0,109.6,13.37,-0.63,0.8
"2016-05-01 01:42:30",1594216,9.42,38.18,7.065,1.319,6.594,99.72925,-1.39,-0.122,93.8,0,109.6,13.37,-0.64,0.2
"2016-05-01 01:43:00",1594217,9.59,39.92,6.467,1.34,6.964,99.73009,-1.388,-0.145,93.8,0,109.6,13.37,-0.64,1.9
"2016-05-01 01:43:30",1594218,9.67,40.44,6.825,1.421,6.846,99.72868,-1.391,-0.129,93.8,0,109.6,13.37,-0.64,2.4
"2016-05-01 01:44:00",1594219,9.89,40.1,6.442,1.413,7.034,99.72755,-1.394,-0.108,93.8,0,109.6,13.37,-0.65,2.1
"2016-05-01 01:44:30",1594220,10.86,39.47,6.066,1.415,6.735,99.71679,-1.422,-0.127,93.8,0,109.6,13.37,-0.67,1.5
"2016-05-01 01:45:00",1594221,10.17,40.86,7.003,1.485,6.535,99.7131,-1.431,-0.156,93.7,0,109.6,13.37,-0.68,2.9
"2016-05-01 01:45:30",1594222,11.12,39.19,7.991,1.662,7.044,99.7131,-1.431,-0.163,93.8,0,109.6,13.37,-0.68,1.2
"2016-05-01 01:46:00",1594223,9.93,40.21,7.801,1.87,7.015,99.71366,-1.429,-0.177,93.8,0,109.6,13.37,-0.68,2.2
"2016-05-01 01:46:30",1594224,9.04,40.89,6.982,1.368,6.636,99.71366,-1.429,-0.184,93.7,0,109.6,13.37,-0.68,2.9
"2016-05-01 01:47:00",1594225,10.27,47.93,7.043,1.665,6.694,99.71366,-1.429,-0.177,93.8,0,109.6,13.37,-0.68,9.9
"2016-05-01 01:47:30",1594226,10.27,46.28,7.034,2.068,6.572,99.71423,-1.428,-0.173,93.8,0,109.6,13.37,-0.68,8.3